Location: Unspecified
(0.0000°N, 0.0000°E)
Time: 02:40:11
(UTC+00:00)

ACS3 Solar Sail - Pass Details

Date: 20 November 2025
Orbit: 887 x 1000 km, 97.3° (Epoch: 14 December)

Event Time Altitude Azimuth Distance (km) Brightness Sun altitude
Exits shadow 02:31:28 14° 165° (SSE) 2,519 4.2 -44.9°
Drops below altitude 10° 02:32:15 10° 169° (SSE) 2,784 4.5 -44.7°
Sets 02:34:55 0° 176° (S) 3,742 5.2 -44.1°
